SCP
0 0 0 0 0 0 0 0 0 0 0 0 0 0 0 0 0 0 0 0 0 0 0 0 0 0 1 1 1 1 1 1 1 1 0 0 1 1 2 1 1 1 2 2
0 0 0 0 0 0 0 0 0 0 0 0 0 0 0 0 0 0 0 0 0 0 0 0 0 0 1 1 1 2 1 1 1 0 0 0 1 1 2 2 2 2 2 2
0 0 0 0 0 0 0 0 0 0 0 0 0 0 0 0 0 0 0 0 0 0 0 0 0 0 1 1 1 2 1 1 1 1 0 0 0 1 2 2 2 2 2 1
0 0 0 0 0 0 0 0 0 0 0 0 0 0 0 0 0 0 0 0 0 0 0 0 0 0 1 1 1 1 1 1 1 1 0 0 0 1 2 2 2 2 1 1
0 0 0 0 0 0 0 0 0 0 0 0 0 0 0 0 0 0 0 0 0 0 0 0 0 0 1 1 1 1 1 1 1 0 0 0 0 1 1 1 1 1 1 1
0 0 0 0 0 0 0 0 0 0 0 0 0 0 0 0 0 0 0 0 0 0 0 0 0 0 1 1 1 1 1 1 1 0 0 0 0 1 1 1 1 0 0 0
0 0 0 0 0 0 0 0 0 0 0 0 0 0 0 0 0 0 0 0 0 0 0 0 0 1 1 1 1 1 1 1 1 0 0 0 0 0 1 1 0 0 0 0
0 0 0 0 0 0 0 0 0 0 0 0 0 0 0 0 0 0 0 0 0 0 0 0 0 1 1 1 1 1 1 1 1 0 0 1 0 0 0 0 0 0 0 0
0 0 0 0 0 0 0 0 0 0 0 0 0 0 0 0 0 0 0 0 0 0 0 0 0 1 1 1 1 1 1 1 1 0 0 0 0 0 0 0 0 0 0 0
0 0 0 0 0 0 0 0 0 0 0 0 0 0 0 0 0 0 0 0 0 0 0 0 0 0 1 1 1 1 1 1 1 0 0 0 0 0 0 0 0 0 0 0
0 0 0 0 0 0 0 0 0 0 0 0 0 0 0 0 0 0 0 0 0 0 0 0 0 0 1 1 1 1 1 1 0 0 0 0 0 0 0 0 0 0 0 0
0 0 0 0 0 0 0 0 0 0 0 0 0 0 0 0 0 0 0 0 0 0 0 0 0 0 1 1 1 1 1 1 1 0 0 0 0 0 0 0 0 0 0 0
0 0 0 0 0 0 0 0 0 0 0 0 0 0 0 0 0 0 0 0 0 0 0 0 0 0 1 1 1 1 1 1 0 0 0 0 0 0 0 0 0 0 0 0
0 0 0 0 0 0 0 0 0 0 0 0 0 0 0 0 0 0 0 0 0 0 0 0 1 1 1 1 1 1 0 0 0 0 0 0 0 0 0 0 0 0 0 0
0 0 0 0 0 0 0 0 0 0 0 0 0 0 0 0 0 0 0 0 0 0 0 0 0 1 1 1 1 0 0 0 0 0 0 0 0 0 0 0 0 0 0 0
0 0 0 0 0 0 0 0 0 0 0 0 0 0 0 0 0 0 0 0 0 0 0 0 0 0 0 0 0 0 0 0 0 0 0 0 0 0 0 0 0 0 0 0
0 0 0 0 0 0 0 0 0 0 0 0 0 0 0 0 0 0 0 0 0 0 0 0 0 0 0 0 0 0 0 0 0 0 0 0 0 0 0 0 0 0 0 0
0 0 0 0 0 0 0 0 0 0 0 0 0 0 0 0 0 0 0 0 0 0 0 0 0 0 0 0 0 0 0 0 0 0 0 0 0 0 0 0 0 0 0 0
0 0 0 0 0 0 0 0 0 0 0 0 0 0 0 0 0 0 0 0 0 0 0 0 0 0 0 0 0 0 0 0 0 0 0 0 0 0 0 0 0 0 0 0
0 0 0 0 0 0 0 0 0 0 0 0 0 0 0 0 0 0 0 0 0 0 0 0 0 0 0 0 0 0 0 0 0 0 0 0 0 0 0 0 0 0 0 0
0 0 0 0 0 0 0 0 0 0 0 0 0 0 0 0 0 0 0 0 0 0 0 0 0 0 0 0 0 0 0 0 0 0 0 0 0 0 0 0 0 0 0 0
0 0 0 0 0 0 0 0 0 0 0 0 0 0 0 0 0 0 0 0 0 0 0 0 0 0 0 0 0 0 0 0 0 0 0 0 0 0 0 0 0 0 0 0
0 0 0 0 0 0 0 0 0 0 0 0 0 0 0 0 0 0 0 0 0 0 0 0 0 0 0 0 0 0 0 0 0 0 0 0 0 0 0 0 0 0 0 0
0 0 0 0 0 0 0 0 0 0 0 0 0 0 0 0 0 0 0 0 0 0 0 0 0 0 0 0 0 0 0 0 0 0 0 0 0 0 0 0 0 0 0 0
0 0 0 0 0 0 0 0 0 0 0 0 0 0 0 0 0 0 0 0 0 0 0 0 0 0 0 0 0 0 0 0 0 0 0 0 0 0 0 0 0 0 0 0
0 0 0 0 0 0 0 0 0 0 0 0 0 0 0 0 0 0 0 0 0 0 0 0 0 0 0 0 0 0 0 0 0 0 0 0 0 0 0 0 0 0 0 0
Wind_Speed
5 3 3 3 4 4 5 6 8 5 1 5 10 13 11 6 5 5 4 3 3 3 3 2 2 2 2 3 3 3 3 3 2 2 2 3 3 3 3 3 5 5 5 5
3 5 4 2 2 5 6 8 8 6 2 5 10 14 11 6 5 4 3 3 3 3 2 2 3 3 2 3 3 3 3 4 3 3 3 3 3 3 3 3 4 5 5 5
5 1 1 3 3 5 6 6 6 7 9 8 7 10 5 4 4 3 3 3 2 2 3 3 3 3 3 4 3 4 4 4 4 4 3 3 3 3 3 3 3 4 5 5
4 3 3 4 4 4 5 2 5 7 7 5 2 6 4 5 4 3 3 2 1 2 2 3 3 4 4 4 3 3 4 4 4 4 4 4 5 4 4 3 3 4 4 5
3 2 3 4 3 4 2 4 6 7 6 7 5 5 7 4 3 4 3 2 1 1 2 2 3 3 3 3 3 4 4 4 4 4 4 4 5 4 3 3 4 3 3 4
3 1 2 2 1 2 3 5 6 5 3 6 6 5 6 3 4 4 3 2 1 2 2 2 2 3 4 3 3 4 4 4 4 4 4 4 5 5 5 5 4 3 3 3
5 5 3 1 2 2 2 2 1 2 2 5 2 4 6 1 3 3 3 2 1 1 2 2 3 4 4 4 4 4 4 4 4 4 4 4 5 5 6 6 5 4 3 2
4 5 6 4 2 2 3 2 1 3 3 3 1 5 4 3 3 2 2 2 1 1 2 2 3 4 4 5 4 4 4 4 4 3 4 4 4 4 4 5 4 3 3 3
3 2 3 3 1 1 2 2 0 1 3 5 6 4 1 2 2 1 1 1 1 2 2 3 3 4 5 4 4 4 4 4 3 3 4 4 3 4 4 4 4 3 3 3
1 1 4 3 2 3 3 1 1 2 2 5 6 4 3 2 1 1 1 1 2 2 3 3 4 4 4 4 3 3 4 4 3 4 4 3 3 3 3 3 4 3 3 3
1 2 3 4 6 6 4 3 3 2 3 3 5 4 1 2 1 0 1 2 2 3 3 4 4 4 4 4 3 3 3 3 3 3 4 3 3 2 2 3 3 3 3 3
3 2 3 3 1 0 3 4 4 3 4 4 4 6 1 3 3 2 2 2 2 3 3 4 4 4 4 3 3 3 3 3 3 3 3 2 2 2 2 2 2 2 2 3
4 3 2 2 1 1 3 4 4 2 1 4 4 6 0 3 2 2 2 3 3 3 3 3 4 4 4 3 3 3 3 3 3 3 2 2 2 2 2 2 1 2 2 2
4 3 5 5 2 3 4 5 5 5 4 5 8 8 5 3 3 4 4 4 3 3 3 3 4 4 4 3 4 3 3 3 3 2 2 2 2 2 2 1 1 1 1 1
4 4 5 7 6 4 6 7 9 11 10 8 7 8 9 5 4 5 4 4 5 5 5 4 4 4 4 4 4 4 3 3 2 2 2 2 2 2 1 1 1 1 1 1
4 3 2 6 7 6 8 10 11 12 12 13 13 14 8 6 5 5 5 4 4 5 5 5 5 5 5 4 4 4 4 3 3 2 2 2 2 2 1 1 1 1 1 1
5 4 3 4 2 4 10 11 12 10 10 9 13 12 6 6 5 5 4 4 4 5 5 5 5 4 4 4 4 4 4 3 3 2 2 2 2 2 2 1 1 0 1 1
7 5 3 3 1 8 7 3 8 11 12 11 9 7 5 5 5 4 2 2 3 4 4 4 4 5 4 4 4 4 3 3 3 3 3 2 2 2 2 1 1 1 1 1
8 7 4 3 5 9 6 5 5 6 8 8 9 8 5 3 4 4 3 2 2 3 3 3 4 3 4 4 4 4 3 3 4 4 3 3 2 2 2 2 2 2 1 1
7 5 5 5 5 7 3 3 3 2 6 5 6 6 3 0 2 5 3 3 3 3 3 3 4 4 4 4 4 4 3 4 4 4 4 3 2 2 3 3 2 2 1 2
9 8 9 8 7 8 3 4 5 4 7 2 4 4 3 3 5 3 1 2 2 3 3 3 3 3 3 3 3 3 3 4 4 4 4 4 3 3 2 2 2 2 2 2
11 9 9 7 8 10 5 6 7 6 1 1 1 2 2 2 1 1 1 2 2 3 4 4 3 4 4 3 3 3 3 4 4 4 4 4 3 3 3 2 3 2 2 2
9 8 6 9 9 4 8 7 5 2 1 0 1 1 1 0 1 2 2 2 2 2 3 3 3 3 3 3 2 2 3 3 4 4 4 4 4 3 3 2 3 2 2 2
4 4 4 5 6 4 4 4 3 2 1 1 1 1 1 1 1 2 2 2 3 3 2 2 3 3 3 3 2 2 3 3 3 3 3 3 4 3 3 3 2 2 2 2
4 4 5 7 5 3 3 3 3 2 1 1 1 0 0 1 2 2 3 3 3 2 2 2 2 3 4 3 3 2 2 2 3 3 3 3 3 3 3 2 2 3 2 3
6 6 7 7 5 4 3 2 2 3 2 2 1 1 1 1 2 2 3 2 2 2 2 3 3 3 3 3 3 2 2 2 2 3 3 3 2 3 3 3 3 5 5 7
Wind_Direction
193 219 221 217 222 274 304 291 283 282 291 291 271 274 273 248 233 243 245 227 219 233 250 256 267 277 286 293 296 297 285 278 283 275 263 255 248 244 243 231 224 225 219 208
203 232 235 254 265 268 270 275 281 289 300 282 279 278 270 237 213 212 232 235 224 236 260 278 293 298 293 287 285 295 294 284 279 275 264 248 252 247 238 235 227 221 216 211
226 175 155 231 249 266 255 263 290 300 310 264 273 282 232 198 191 199 227 221 214 264 283 283 286 287 298 291 282 294 293 288 282 280 280 274 275 271 260 247 235 222 216 209
233 224 236 242 246 262 267 316 302 298 301 290 274 293 252 181 196 212 230 220 232 266 274 282 287 294 295 292 289 285 287 285 290 280 272 265 259 256 255 246 238 229 220 214
223 174 228 246 253 254 281 315 286 277 274 283 247 247 268 159 208 220 218 225 242 266 284 296 304 301 304 307 302 289 286 283 286 281 273 269 267 261 258 254 249 238 226 219
249 243 260 278 311 266 285 275 260 252 261 267 231 224 269 197 210 210 203 235 255 292 304 293 303 313 309 309 298 286 280 285 284 273 267 262 267 264 263 258 245 233 219 218
213 199 179 199 232 205 264 286 304 292 241 250 180 223 257 181 156 170 183 209 247 271 300 304 315 313 307 304 293 283 280 288 288 282 272 263 263 256 250 250 240 229 222 221
208 200 172 183 205 208 219 236 204 252 276 300 264 242 251 111 94 66 133 177 229 270 288 295 303 297 296 293 288 282 280 280 285 292 286 272 264 259 252 250 242 230 230 223
227 155 132 159 203 281 217 207 334 275 283 278 256 229 172 96 89 17 21 323 285 296 304 303 299 299 296 288 275 270 270 274 282 290 291 279 262 258 260 257 250 227 224 225
270 183 167 146 196 236 282 288 159 204 259 274 271 240 236 184 238 272 293 295 322 326 319 312 304 297 299 292 277 278 271 273 282 281 275 283 271 261 251 246 245 229 217 217
216 169 166 181 207 190 184 205 216 232 252 252 286 282 28 143 153 301 288 314 321 309 305 305 307 305 299 296 285 284 281 285 287 283 279 282 281 275 255 243 238 225 217 207
191 182 220 205 143 4 207 204 186 199 240 233 265 277 66 70 53 37 360 330 308 305 310 312 312 311 312 303 296 295 291 292 289 284 288 290 292 286 268 253 245 227 224 215
155 161 189 211 187 207 242 234 220 226 247 235 238 261 99 47 18 8 337 312 310 309 307 315 317 315 320 323 322 322 319 308 301 301 307 314 317 315 296 278 253 225 221 223
145 188 210 219 215 180 226 227 210 197 214 241 235 259 285 310 313 318 317 319 321 324 330 329 322 318 323 332 332 333 333 329 325 329 325 323 316 315 300 307 313 265 211 214
169 216 239 264 265 241 237 229 215 217 223 234 256 264 276 287 306 313 318 328 336 336 341 337 330 327 333 343 340 340 338 337 345 352 335 326 335 341 342 2 355 4 15 289
180 221 260 266 249 247 252 239 228 230 234 246 265 272 271 297 309 311 315 322 326 330 333 338 338 335 338 341 343 346 345 352 14 10 345 338 354 353 2 22 17 3 337 310
177 180 199 252 242 281 259 229 216 220 220 223 243 251 279 293 296 296 304 322 327 334 334 333 332 331 334 338 344 340 341 358 16 7 353 354 1 355 348 345 16 340 299 301
173 176 200 245 250 239 239 186 203 222 236 230 242 257 260 272 289 291 288 304 316 326 329 332 336 338 342 345 347 344 358 11 12 4 359 357 360 357 351 2 343 306 305 303
182 181 201 210 238 264 253 210 191 209 248 226 236 252 263 280 305 298 322 337 316 317 324 334 333 333 342 345 348 358 6 6 6 359 352 345 343 346 348 347 341 325 322 315
192 191 205 209 224 240 235 167 158 155 264 223 215 239 245 262 284 276 315 346 344 344 346 345 343 347 347 343 354 3 358 359 353 349 345 347 350 353 346 339 336 333 327 310
185 196 211 220 234 256 226 144 128 185 245 219 196 214 209 210 227 260 338 349 341 341 342 347 342 336 330 341 358 358 355 345 340 348 354 353 355 347 335 333 332 331 328 327
185 188 198 201 222 242 170 151 184 217 218 126 165 176 197 235 264 324 354 338 336 337 339 339 334 327 330 347 359 354 340 334 348 358 356 349 343 334 332 333 327 326 325 321
200 197 192 199 216 210 165 188 206 197 221 188 142 113 137 203 278 302 314 313 308 317 317 320 318 317 323 339 353 336 327 339 350 357 351 344 343 340 333 326 321 319 318 305
223 217 235 246 246 236 205 204 202 208 212 77 72 56 109 213 272 296 303 301 302 308 311 318 320 314 313 320 332 325 332 341 350 341 335 339 342 340 340 335 326 317 309 300
218 200 237 257 265 271 235 219 209 176 142 94 34 17 227 258 279 286 292 295 299 308 313 311 301 298 301 311 320 332 341 343 335 329 326 328 330 326 326 326 321 311 303 291
224 217 216 237 240 237 248 231 199 184 197 200 217 261 277 250 266 287 290 293 301 307 311 307 300 301 305 312 313 324 333 333 323 321 319 317 314 314 312 309 315 315 304 310